Tracking 19562 objects as of 25-Mar-2019
HD Live streaming from Space Station
objects crossing your sky now

COSMOS 2026

Track COSMOS 2026 now!
10-day predictions
COSMOS 2026 is classified as:


NORAD ID: 20045
Int'l Code: 1989-042A
Perigee: 955.1 km
Apogee: 1,015.3 km
Inclination: 82.9 °
Period: 104.6 minutes
Semi major axis: 7356 km
RCS: 2.3991 m2 (large)
Launch date: June 7, 1989
Source: Commonwealth of Independent States (former USSR) (CIS)
Launch site: PLESETSK MISSILE AND SPACE COMPLEX (PKMTR)
aabbcc
Your satellite tracking list
Your tracking list is empty




NASA's NSSDC Master Catalog

Two Line Element Set (TLE):
1 20045U 89042A   19083.87761986  .00000029  00000-0  13595-4 0  9995
2 20045  82.9427 209.1023 0040922 142.2632 333.3907 13.76025826496231
Source of the keplerian elements: AFSPC